Flag for Slovenia Weather past 2 weeks in Ljubljana, Slovenia

Now
56 °F

Partly sunny.


Feels Like: 56 °F
Forecast: 51 / 66 °F
Wind: 1 mph from West

Location: Ljubljana / Bezigrad

Current Time: Apr 27, 2015 at 7:03:15 AM

Latest Report: Apr 27, 2015 at 6:00 AM


Visibility: 9 mi

Pressure: 29.80 "Hg

Humidity: 77%

Dew point: 49 °F

Location of LjubljanaLocation

Historic Weather in Ljubljana — Graph

°F

Ljubljana temperature yesterday

Maximum temperature yesterday: 66 °F (at 1:00 PM)
Minimum temperature yesterday: 51 °F (at 6:00 AM)
Average temperature yesterday: 59 °F

Past Weeks' High & Low Weather Summary

 TemperatureHumidityPressure
High76 °F (Apr 22, 5:00 PM)100% (Apr 19, 5:00 AM)30.44 "Hg (Apr 19, 5:00 AM)
Low34 °F (Apr 19, 7:00 AM)16% (Apr 21, 5:00 PM)29.81 "Hg (Apr 27, 5:00 AM)
Average57 °F58%30.11 "Hg
* Reported Apr 12 6:00 AM — Apr 27 5:00 AM, Ljubljana, Weather by CustomWeather, © 2015

Note: Actual official high and low records may vary slightly from our data, if they occured in-between our weather recording intervals... More about our weather records

Advertising

Ljubljana weather history for previous 24 hours

 ConditionsComfort  
Time TempWeatherWind HumidityBarometerVisibility
5:00 AM
Mon, Apr 27
56 °FCool.2 mph77%29.81 "HgN/A
4:00 AM56 °FCool.1 mph77%29.83 "HgN/A
3:00 AM56 °FCool.3 mph77%29.85 "HgN/A
2:00 AM56 °FCool.2 mph76%29.86 "HgN/A
1:00 AM58 °FCool.3 mph73%29.88 "HgN/A
12:00 AM58 °FCool.3 mph76%29.88 "HgN/A
10:00 PM
Sun, Apr 26
58 °FPassing clouds.1 mph71%29.88 "Hg19 mi
9:00 PM59 °FPassing clouds.3 mph71%29.87 "Hg19 mi
8:00 PM60 °FPartly sunny.2 mph64%29.85 "Hg22 mi
7:00 PM62 °FScattered clouds.3 mph59%29.84 "Hg22 mi
6:00 PM64 °FScattered clouds.5 mph60%29.84 "Hg22 mi
5:00 PM64 °FScattered clouds.5 mph60%29.85 "Hg22 mi
4:00 PM65 °FScattered clouds.6 mph55%29.87 "Hg19 mi
3:00 PM65 °FScattered clouds.5 mph55%29.88 "Hg19 mi
2:00 PM65 °FScattered clouds.5 mph53%29.89 "Hg25 mi
1:00 PM66 °FPartly sunny.5 mph51%29.90 "Hg25 mi
12:00 PM65 °FScattered clouds.6 mph51%29.91 "Hg25 mi
11:00 AM63 °FScattered clouds.7 mph56%29.91 "Hg25 mi
10:00 AM62 °FScattered clouds.5 mph59%29.91 "Hg31 mi
9:00 AM58 °FPassing clouds.5 mph66%29.92 "Hg31 mi
8:00 AM56 °FPassing clouds.1 mph69%29.93 "Hg31 mi
7:00 AM52 °FPassing clouds.2 mph75%29.94 "Hg31 mi
Weather by CustomWeather, © 2015

See weather overviewHow to use our weather pages